Time,TemperatureF,DewpointF,PressureIn,WindDirection,WindDirectionDegrees,WindSpeedMPH,WindSpeedGustMPH,Humidity,HourlyPrecipIn,Conditions,Clouds,dailyrainin,SolarRadiationWatts/m^2,SoftwareType,DateUTC
2013-05-01 00:01:00,66.0,52.2,29.99,South,180,0.2,2.3,61,0.00,SCT,,0.00,0.0,WeatherDisplay:10.37,2013-04-30 22:01:00,
2013-05-01 00:06:00,66.0,52.2,29.99,South,180,0.8,3.5,61,0.00,SCT,,0.00,0.0,WeatherDisplay:10.37,2013-04-30 22:06:00,
2013-05-01 00:11:00,66.1,52.3,29.99,South,180,0.5,2.3,61,0.00,SCT,,0.00,0.0,WeatherDisplay:10.37,2013-04-30 22:11:00,
2013-05-01 00:16:00,66.2,52.3,29.99,South,190,1.0,4.6,61,0.00,SCT,,0.00,0.0,WeatherDisplay:10.37,2013-04-30 22:16:00,
2013-05-01 00:21:00,66.2,52.3,30.00,South,190,1.2,5.8,61,0.00,SCT,,0.00,0.0,WeatherDisplay:10.37,2013-04-30 22:21:00,
2013-05-01 00:26:00,66.2,52.3,30.00,South,190,0.6,3.5,61,0.00,SCT,,0.00,0.0,WeatherDisplay:10.37,2013-04-30 22:26:00,
2013-05-01 00:31:00,66.1,52.3,30.00,SSW,196,0.2,3.5,61,0.00,SCT,,0.00,0.0,WeatherDisplay:10.37,2013-04-30 22:31:00,
2013-05-01 00:36:00,66.0,52.2,30.00,SSW,192,0.4,2.3,61,0.00,SCT,,0.00,0.0,WeatherDisplay:10.37,2013-04-30 22:36:00,
2013-05-01 00:41:00,65.9,51.6,30.00,SW,224,1.2,4.0,60,0.00,SCT,,0.00,0.0,WeatherDisplay:10.37,2013-04-30 22:41:00,
2013-05-01 00:46:00,65.8,52.0,30.00,SW,219,1.3,5.0,61,0.00,SCT,,0.00,0.0,WeatherDisplay:10.37,2013-04-30 22:46:00,
2013-05-01 00:51:00,65.7,51.9,30.00,South,189,2.5,5.0,61,0.00,SCT,,0.00,0.0,WeatherDisplay:10.37,2013-04-30 22:51:00,
2013-05-01 00:56:00,65.7,51.9,30.00,SSW,193,2.9,7.0,61,0.00,SCT,,0.00,0.0,WeatherDisplay:10.37,2013-04-30 22:56:00,
2013-05-01 01:01:00,65.9,52.1,30.00,South,186,2.0,4.0,61,0.00,SCT,,0.00,0.0,WeatherDisplay:10.37,2013-04-30 23:01:00,
2013-05-01 01:06:00,66.1,51.8,30.00,South,172,3.1,8.1,60,0.00,SCT,,0.00,0.0,WeatherDisplay:10.37,2013-04-30 23:06:00,
2013-05-01 01:11:00,66.4,52.1,30.00,South,179,2.9,6.9,60,0.00,SCT,,0.00,0.0,WeatherDisplay:10.37,2013-04-30 23:11:00,
2013-05-01 01:16:00,66.7,51.9,30.00,South,190,3.8,6.9,59,0.00,SCT,,0.00,0.0,WeatherDisplay:10.37,2013-04-30 23:16:00,
2013-05-01 01:21:00,66.9,52.1,30.00,SSE,163,3.4,6.0,59,0.00,SCT,,0.00,0.0,WeatherDisplay:10.37,2013-04-30 23:21:00,
2013-05-01 01:26:00,67.0,52.2,30.00,South,187,2.1,4.0,59,0.00,SCT,,0.00,0.0,WeatherDisplay:10.37,2013-04-30 23:26:00,
2013-05-01 01:31:00,67.0,52.2,30.00,SSW,193,1.7,3.5,59,0.00,SCT,,0.00,0.0,WeatherDisplay:10.37,2013-04-30 23:31:00,
2013-05-01 01:36:00,67.0,52.2,30.00,South,184,2.8,6.9,59,0.00,SCT,,0.00,0.0,WeatherDisplay:10.37,2013-04-30 23:36:00,
2013-05-01 01:41:00,66.9,52.1,30.00,SSW,192,0.8,5.8,59,0.00,SCT,,0.00,0.0,WeatherDisplay:10.37,2013-04-30 23:41:00,
2013-05-01 01:46:00,66.9,52.1,30.00,South,182,2.3,6.0,59,0.00,SCT,,0.00,0.0,WeatherDisplay:10.37,2013-04-30 23:46:00,
2013-05-01 01:51:00,66.8,52.0,30.00,South,190,2.1,6.0,59,0.00,SCT,,0.00,0.0,WeatherDisplay:10.37,2013-04-30 23:51:00,
2013-05-01 01:56:00,66.7,52.4,30.00,South,179,1.4,4.0,60,0.00,SCT,,0.00,0.0,WeatherDisplay:10.37,2013-04-30 23:56:00,
2013-05-01 02:01:00,66.6,52.3,30.00,SSW,200,1.3,5.8,60,0.00,SCT,,0.00,0.0,WeatherDisplay:10.37,2013-05-01 00:01:00,
2013-05-01 02:06:00,66.5,52.2,30.00,South,189,2.3,4.0,60,0.00,SCT,,0.00,0.0,WeatherDisplay:10.37,2013-05-01 00:06:00,
2013-05-01 02:11:00,66.4,52.1,30.00,South,171,2.4,5.8,60,0.00,SCT,,0.00,0.0,WeatherDisplay:10.37,2013-05-01 00:11:00,
2013-05-01 02:16:00,66.2,52.3,30.00,South,191,2.8,5.0,61,0.00,SCT,,0.00,0.0,WeatherDisplay:10.37,2013-05-01 00:16:00,
2013-05-01 02:21:00,66.0,52.2,30.00,SSW,194,2.6,6.0,61,0.00,SCT,,0.00,0.0,WeatherDisplay:10.37,2013-05-01 00:21:00,
2013-05-01 02:26:00,65.9,52.5,30.00,South,186,0.8,4.6,62,0.00,SCT,,0.00,0.0,WeatherDisplay:10.37,2013-05-01 00:26:00,
2013-05-01 02:31:00,65.8,52.4,30.00,SW,217,1.9,4.0,62,0.00,SCT,,0.00,0.0,WeatherDisplay:10.37,2013-05-01 00:31:00,
2013-05-01 02:36:00,65.6,52.2,30.00,South,187,1.8,4.0,62,0.00,SCT,,0.00,0.0,WeatherDisplay:10.37,2013-05-01 00:36:00,
2013-05-01 02:41:00,65.5,52.1,30.00,South,177,1.0,3.5,62,0.00,SCT,,0.00,0.0,WeatherDisplay:10.37,2013-05-01 00:41:00,
2013-05-01 02:46:00,65.4,52.5,30.00,South,186,2.2,4.6,63,0.00,SCT,,0.00,0.0,WeatherDisplay:10.37,2013-05-01 00:46:00,
2013-05-01 02:51:00,65.3,52.4,30.00,SSW,196,2.2,4.6,63,0.00,SCT,,0.00,0.0,WeatherDisplay:10.37,2013-05-01 00:51:00,
2013-05-01 02:56:00,65.2,52.3,30.00,SSW,194,2.3,5.0,63,0.00,SCT,,0.00,0.0,WeatherDisplay:10.37,2013-05-01 00:56:00,
2013-05-01 03:01:00,65.2,52.3,30.00,SSW,192,1.7,6.9,63,0.00,SCT,,0.00,0.0,WeatherDisplay:10.37,2013-05-01 01:01:00,
2013-05-01 03:06:00,65.1,52.2,30.00,SSE,163,2.3,6.9,63,0.00,SCT,,0.00,0.0,WeatherDisplay:10.37,2013-05-01 01:06:00,
2013-05-01 03:11:00,65.0,52.5,30.00,SSE,155,1.4,4.0,64,0.00,SCT,,0.00,0.0,WeatherDisplay:10.37,2013-05-01 01:11:00,
2013-05-01 03:16:00,64.9,52.4,30.00,South,170,1.1,4.6,64,0.00,SCT,,0.00,0.0,WeatherDisplay:10.37,2013-05-01 01:16:00,
2013-05-01 03:21:00,64.8,52.8,30.00,South,173,0.1,1.0,65,0.00,SCT,,0.00,0.0,WeatherDisplay:10.37,2013-05-01 01:21:00,
2013-05-01 03:26:00,64.7,52.7,30.00,South,173,0.0,1.2,65,0.00,SCT,,0.00,0.0,WeatherDisplay:10.37,2013-05-01 01:26:00,
2013-05-01 03:31:00,64.5,52.5,30.00,South,173,0.2,1.2,65,0.00,SCT,,0.00,0.0,WeatherDisplay:10.37,2013-05-01 01:31:00,
2013-05-01 03:36:00,64.4,52.4,30.00,South,173,0.6,2.0,65,0.00,SCT,,0.00,0.0,WeatherDisplay:10.37,2013-05-01 01:36:00,
2013-05-01 03:41:00,64.2,52.6,30.00,SSE,157,0.1,1.2,66,0.00,SCT,,0.00,0.0,WeatherDisplay:10.37,2013-05-01 01:41:00,
2013-05-01 03:46:00,64.1,52.5,30.00,SSE,157,0.8,2.3,66,0.00,SCT,,0.00,0.0,WeatherDisplay:10.37,2013-05-01 01:46:00,
2013-05-01 03:51:00,64.0,52.8,30.00,SSE,157,0.0,1.2,67,0.00,SCT,,0.00,0.0,WeatherDisplay:10.37,2013-05-01 01:51:00,
2013-05-01 03:56:00,63.8,52.6,30.01,SSE,157,0.0,0.0,67,0.00,SCT,,0.00,0.0,WeatherDisplay:10.37,2013-05-01 01:56:00,
2013-05-01 04:01:00,63.7,52.5,30.01,SSE,157,0.4,1.2,67,0.00,SCT,,0.00,0.0,WeatherDisplay:10.37,2013-05-01 02:01:00,
2013-05-01 04:06:00,63.4,52.7,30.01,SSE,157,0.0,1.2,68,0.00,SCT,,0.00,0.0,WeatherDisplay:10.37,2013-05-01 02:06:00,
2013-05-01 04:11:00,63.1,52.4,30.01,SSE,157,0.0,0.0,68,0.00,SCT,,0.00,0.0,WeatherDisplay:10.37,2013-05-01 02:11:00,
2013-05-01 04:16:00,62.9,52.6,30.01,SSE,157,0.0,0.0,69,0.00,SCT,,0.00,0.0,WeatherDisplay:10.37,2013-05-01 02:16:00,
2013-05-01 04:21:00,62.6,52.3,30.01,SSE,157,0.0,0.0,69,0.00,SCT,,0.00,0.0,WeatherDisplay:10.37,2013-05-01 02:21:00,
2013-05-01 04:26:00,62.3,52.4,30.01,SSE,157,0.0,0.0,70,0.00,SCT,,0.00,0.0,WeatherDisplay:10.37,2013-05-01 02:26:00,
2013-05-01 04:31:00,62.0,52.1,30.01,SSE,157,0.0,0.0,70,0.00,SCT,,0.00,0.0,WeatherDisplay:10.37,2013-05-01 02:31:00,
2013-05-01 04:36:00,61.7,52.2,30.01,SSE,157,0.1,1.2,71,0.00,SCT,,0.00,0.0,WeatherDisplay:10.37,2013-05-01 02:36:00,
2013-05-01 04:41:00,61.4,51.9,30.01,SSE,157,0.0,1.2,71,0.00,SCT,,0.00,0.0,WeatherDisplay:10.37,2013-05-01 02:41:00,
2013-05-01 04:46:00,61.2,52.1,30.01,SSE,157,0.0,0.0,72,0.00,SCT,,0.00,0.0,WeatherDisplay:10.37,2013-05-01 02:46:00,
2013-05-01 04:51:00,60.9,51.8,30.01,SSE,157,0.0,0.0,72,0.00,SCT,,0.00,0.0,WeatherDisplay:10.37,2013-05-01 02:51:00,
2013-05-01 04:56:00,60.6,51.9,30.01,SSE,157,0.0,1.2,73,0.00,SCT,,0.00,0.0,WeatherDisplay:10.37,2013-05-01 02:56:00,
2013-05-01 05:01:00,60.4,51.7,30.02,SSE,157,0.0,1.2,73,0.00,SCT,,0.00,0.0,WeatherDisplay:10.37,2013-05-01 03:01:00,
2013-05-01 05:06:00,60.2,51.9,30.02,SSE,157,0.5,2.3,74,0.00,SCT,,0.00,0.0,WeatherDisplay:10.37,2013-05-01 03:06:00,
2013-05-01 05:11:00,60.0,51.7,30.02,SSE,157,0.1,1.2,74,0.00,SCT,,0.00,0.0,WeatherDisplay:10.37,2013-05-01 03:11:00,
2013-05-01 05:16:00,59.8,51.9,30.02,SSE,157,0.3,1.2,75,0.00,SCT,,0.00,0.0,WeatherDisplay:10.37,2013-05-01 03:16:00,
2013-05-01 05:21:00,59.6,51.7,30.02,South,170,0.3,2.3,75,0.00,SCT,,0.00,0.0,WeatherDisplay:10.37,2013-05-01 03:21:00,
2013-05-01 05:26:00,59.5,51.6,30.02,South,170,0.0,0.0,75,0.00,SCT,,0.00,0.0,WeatherDisplay:10.37,2013-05-01 03:26:00,
2013-05-01 05:31:00,59.4,51.5,30.02,South,170,0.0,1.2,75,0.00,SCT,,0.00,5.0,WeatherDisplay:10.37,2013-05-01 03:31:00,
2013-05-01 05:36:00,59.4,51.5,30.02,South,170,0.4,1.2,75,0.00,SCT,,0.00,7.0,WeatherDisplay:10.37,2013-05-01 03:36:00,
2013-05-01 05:41:00,59.5,51.9,30.02,South,173,0.0,2.3,76,0.00,SCT,,0.00,11.0,WeatherDisplay:10.37,2013-05-01 03:41:00,
2013-05-01 05:46:00,59.6,52.0,30.02,South,176,0.0,1.2,76,0.00,SCT,,0.00,12.0,WeatherDisplay:10.37,2013-05-01 03:46:00,
2013-05-01 05:51:00,59.6,51.7,30.02,South,176,0.0,1.2,75,0.00,SCT,,0.00,14.0,WeatherDisplay:10.37,2013-05-01 03:51:00,
2013-05-01 05:56:00,59.6,51.7,30.02,South,176,0.0,1.2,75,0.00,SCT,,0.00,18.0,WeatherDisplay:10.37,2013-05-01 03:56:00,
2013-05-01 06:01:00,59.7,51.8,30.02,South,174,0.5,1.2,75,0.00,SCT,,0.00,21.0,WeatherDisplay:10.37,2013-05-01 04:01:00,
2013-05-01 06:03:00,59.7,51.8,30.02,South,174,0.0,1.2,75,0.00,SCT,,0.00,21.0,WeatherDisplay:10.37,2013-05-01 04:03:00,
2013-05-01 06:05:00,59.7,51.8,30.02,South,174,0.0,1.0,75,0.00,SCT,,0.00,23.0,WeatherDisplay:10.37,2013-05-01 04:05:00,
2013-05-01 06:07:00,59.9,52.0,30.02,South,174,0.0,0.0,75,0.00,SCT,,0.00,23.0,WeatherDisplay:10.37,2013-05-01 04:07:00,
2013-05-01 06:12:00,60.0,52.1,30.02,SSW,196,0.8,3.5,75,0.00,SCT,,0.00,23.0,WeatherDisplay:10.37,2013-05-01 04:12:00,
2013-05-01 06:17:00,60.0,52.1,30.03,SSW,196,0.0,0.0,75,0.00,SCT,,0.00,23.0,WeatherDisplay:10.37,2013-05-01 04:17:00,
2013-05-01 06:22:00,60.0,52.1,30.03,SSW,196,0.0,0.0,75,0.00,SCT,,0.00,26.0,WeatherDisplay:10.37,2013-05-01 04:22:00,
2013-05-01 06:27:00,59.9,52.3,30.03,SSW,196,0.0,0.0,76,0.00,BKN,,0.00,30.0,WeatherDisplay:10.37,2013-05-01 04:27:00,
2013-05-01 06:32:00,59.9,52.3,30.03,SSW,196,0.0,0.0,76,0.00,BKN,,0.00,35.0,WeatherDisplay:10.37,2013-05-01 04:32:00,
2013-05-01 06:37:00,59.9,52.3,30.03,SSW,196,0.0,0.0,76,0.00,BKN,,0.00,40.0,WeatherDisplay:10.37,2013-05-01 04:37:00,
2013-05-01 06:42:00,59.9,52.7,30.03,SSW,196,0.0,0.0,77,0.00,BKN,,0.00,49.0,WeatherDisplay:10.37,2013-05-01 04:42:00,
2013-05-01 06:47:00,59.9,52.7,30.04,SSW,196,0.0,0.0,77,0.00,BKN,,0.00,65.0,WeatherDisplay:10.37,2013-05-01 04:47:00,
2013-05-01 06:52:00,60.0,52.8,30.04,SSW,196,0.0,0.0,77,0.00,BKN,,0.00,79.0,WeatherDisplay:10.37,2013-05-01 04:52:00,
2013-05-01 06:57:00,60.1,53.2,30.04,SSW,196,0.0,0.0,78,0.00,SCT,,0.00,98.0,WeatherDisplay:10.37,2013-05-01 04:57:00,
2013-05-01 07:02:00,60.5,54.0,30.04,SSW,196,0.0,0.0,79,0.00,SCT,,0.00,109.0,WeatherDisplay:10.37,2013-05-01 05:02:00,
2013-05-01 07:07:00,61.1,54.2,30.04,SSW,196,0.0,0.0,78,0.00,SCT,,0.00,123.0,WeatherDisplay:10.37,2013-05-01 05:07:00,
2013-05-01 07:12:00,62.0,54.3,30.04,SSW,196,0.0,0.0,76,0.00,SCT,,0.00,144.0,WeatherDisplay:10.37,2013-05-01 05:12:00,
2013-05-01 07:17:00,62.8,54.4,30.04,SSW,196,0.0,0.0,74,0.00,SCT,,0.00,156.0,WeatherDisplay:10.37,2013-05-01 05:17:00,
2013-05-01 07:22:00,63.6,54.4,30.04,SSW,196,0.0,0.0,72,0.00,FEW,,0.00,172.0,WeatherDisplay:10.37,2013-05-01 05:22:00,
2013-05-01 07:27:00,64.3,54.3,30.04,SSW,196,0.0,0.0,70,0.00,FEW,,0.00,183.0,WeatherDisplay:10.37,2013-05-01 05:27:00,
2013-05-01 07:32:00,65.0,54.6,30.04,SSW,196,0.0,0.0,69,0.00,FEW,,0.00,195.0,WeatherDisplay:10.37,2013-05-01 05:32:00,
2013-05-01 07:37:00,65.7,54.8,30.05,SSW,196,0.0,1.2,68,0.00,FEW,,0.00,206.0,WeatherDisplay:10.37,2013-05-01 05:37:00,
2013-05-01 07:42:00,66.2,53.7,30.05,SSW,196,0.0,0.0,64,0.00,FEW,,0.00,221.0,WeatherDisplay:10.37,2013-05-01 05:42:00,
2013-05-01 07:47:00,66.5,53.9,30.05,SSW,196,0.0,0.0,64,0.00,FEW,,0.00,232.0,WeatherDisplay:10.37,2013-05-01 05:47:00,
2013-05-01 07:52:00,66.9,53.9,30.05,SSW,196,0.0,0.0,63,0.00,FEW,,0.00,248.0,WeatherDisplay:10.37,2013-05-01 05:52:00,
2013-05-01 07:57:00,67.4,53.0,30.05,SSW,211,0.5,2.0,60,0.00,FEW,,0.00,260.0,WeatherDisplay:10.37,2013-05-01 05:57:00,
2013-05-01 08:02:00,67.7,53.3,30.05,SSW,211,0.1,1.2,60,0.00,FEW,,0.00,272.0,WeatherDisplay:10.37,2013-05-01 06:02:00,
2013-05-01 08:07:00,68.1,53.7,30.05,NNW,330,1.8,3.5,60,0.00,FEW,,0.00,285.0,WeatherDisplay:10.37,2013-05-01 06:07:00,
2013-05-01 08:12:00,68.4,54.0,30.05,NW,319,0.0,1.2,60,0.00,CLR,,0.00,294.0,WeatherDisplay:10.37,2013-05-01 06:12:00,
2013-05-01 08:17:00,68.7,53.8,30.05,NW,321,0.7,2.3,59,0.00,CLR,,0.00,306.0,WeatherDisplay:10.37,2013-05-01 06:17:00,
2013-05-01 08:22:00,69.1,54.2,30.05,NW,326,0.2,1.2,59,0.00,CLR,,0.00,315.0,WeatherDisplay:10.37,2013-05-01 06:22:00,
2013-05-01 08:27:00,69.5,54.1,30.06,NW,326,1.4,3.5,58,0.00,CLR,,0.00,330.0,WeatherDisplay:10.37,2013-05-01 06:27:00,
2013-05-01 08:32:00,69.6,54.2,30.06,WSW,248,0.0,3.5,58,0.00,CLR,,0.00,345.0,WeatherDisplay:10.37,2013-05-01 06:32:00,
2013-05-01 08:37:00,70.0,54.1,30.06,WSW,248,0.0,0.0,57,0.00,CLR,,0.00,355.0,WeatherDisplay:10.37,2013-05-01 06:37:00,
2013-05-01 08:42:00,70.2,54.7,30.06,WSW,252,0.1,1.2,58,0.00,CLR,,0.00,366.0,WeatherDisplay:10.37,2013-05-01 06:42:00,
2013-05-01 08:47:00,70.4,54.0,30.05,NW,314,0.4,2.3,56,0.00,CLR,,0.00,374.0,WeatherDisplay:10.37,2013-05-01 06:47:00,
2013-05-01 08:52:00,70.4,54.0,30.06,NW,319,1.5,3.5,56,0.00,CLR,,0.00,385.0,WeatherDisplay:10.37,2013-05-01 06:52:00,
2013-05-01 08:57:00,70.5,54.0,30.06,NW,321,0.6,3.5,56,0.00,CLR,,0.00,394.0,WeatherDisplay:10.37,2013-05-01 06:57:00,
2013-05-01 09:02:00,70.6,54.1,30.06,WNW,283,2.8,4.6,56,0.00,CLR,,0.00,406.0,WeatherDisplay:10.37,2013-05-01 07:02:00,
2013-05-01 09:07:00,70.7,55.2,30.06,NW,309,0.1,1.0,58,0.00,CLR,,0.00,420.0,WeatherDisplay:10.37,2013-05-01 07:07:00,
2013-05-01 09:12:00,71.2,55.2,30.06,NW,324,2.0,3.5,57,0.00,CLR,,0.00,431.0,WeatherDisplay:10.37,2013-05-01 07:12:00,
2013-05-01 09:17:00,71.5,55.0,30.06,NNE,25,1.7,3.5,56,0.00,CLR,,0.00,439.0,WeatherDisplay:10.37,2013-05-01 07:17:00,
2013-05-01 09:22:00,71.6,55.1,30.06,NE,43,1.3,3.5,56,0.00,CLR,,0.00,450.0,WeatherDisplay:10.37,2013-05-01 07:22:00,
2013-05-01 09:27:00,71.8,55.3,30.06,NNW,327,1.0,3.5,56,0.00,CLR,,0.00,462.0,WeatherDisplay:10.37,2013-05-01 07:27:00,
2013-05-01 09:32:00,71.9,55.3,30.06,NNW,338,0.6,4.0,56,0.00,CLR,,0.00,473.0,WeatherDisplay:10.37,2013-05-01 07:32:00,
2013-05-01 09:37:00,72.0,55.4,30.06,NNW,348,1.4,4.0,56,0.00,CLR,,0.00,487.0,WeatherDisplay:10.37,2013-05-01 07:37:00,
2013-05-01 09:42:00,72.3,55.7,30.06,North,355,3.3,5.8,56,0.00,CLR,,0.00,497.0,WeatherDisplay:10.37,2013-05-01 07:42:00,
2013-05-01 09:47:00,72.5,56.4,30.06,NW,325,4.6,6.9,57,0.00,CLR,,0.00,510.0,WeatherDisplay:10.37,2013-05-01 07:47:00,
2013-05-01 09:52:00,72.7,56.1,30.06,WNW,296,4.3,7.0,56,0.00,CLR,,0.00,517.0,WeatherDisplay:10.37,2013-05-01 07:52:00,
2013-05-01 09:57:00,72.6,56.5,30.06,West,280,3.6,5.8,57,0.00,CLR,,0.00,522.0,WeatherDisplay:10.37,2013-05-01 07:57:00,
2013-05-01 10:02:00,72.8,56.7,30.07,WNW,298,0.2,2.3,57,0.00,CLR,,0.00,534.0,WeatherDisplay:10.37,2013-05-01 08:02:00,
2013-05-01 10:07:00,73.3,57.1,30.07,WNW,283,0.3,3.5,57,0.00,CLR,,0.00,545.0,WeatherDisplay:10.37,2013-05-01 08:07:00,
2013-05-01 10:12:00,73.5,56.8,30.07,NNW,342,2.9,5.0,56,0.00,CLR,,0.00,555.0,WeatherDisplay:10.37,2013-05-01 08:12:00,
2013-05-01 10:17:00,73.7,57.5,30.07,WSW,246,3.4,5.0,57,0.00,CLR,,0.00,566.0,WeatherDisplay:10.37,2013-05-01 08:17:00,
2013-05-01 10:22:00,74.7,58.0,30.07,WNW,296,2.0,4.0,56,0.00,CLR,,0.00,575.0,WeatherDisplay:10.37,2013-05-01 08:22:00,
2013-05-01 10:27:00,74.7,57.5,30.07,ENE,74,1.2,3.5,55,0.00,CLR,,0.00,575.0,WeatherDisplay:10.37,2013-05-01 08:27:00,
2013-05-01 10:32:00,74.7,57.5,30.07,North,5,1.4,3.5,55,0.00,CLR,,0.00,589.0,WeatherDisplay:10.37,2013-05-01 08:32:00,
2013-05-01 10:37:00,74.7,56.9,30.07,WNW,288,0.3,3.5,54,0.00,CLR,,0.00,594.0,WeatherDisplay:10.37,2013-05-01 08:37:00,
2013-05-01 10:42:00,74.9,57.6,30.07,NE,34,4.1,7.0,55,0.00,CLR,,0.00,605.0,WeatherDisplay:10.37,2013-05-01 08:42:00,
2013-05-01 10:47:00,75.1,57.8,30.07,ENE,64,0.9,3.5,55,0.00,CLR,,0.00,613.0,WeatherDisplay:10.37,2013-05-01 08:47:00,
2013-05-01 10:52:00,75.4,57.6,30.07,North,355,2.0,6.9,54,0.00,CLR,,0.00,617.0,WeatherDisplay:10.37,2013-05-01 08:52:00,
2013-05-01 10:57:00,75.3,57.5,30.07,North,355,0.6,2.3,54,0.00,CLR,,0.00,626.0,WeatherDisplay:10.37,2013-05-01 08:57:00,
2013-05-01 11:02:00,75.4,57.6,30.06,WNW,294,2.1,4.0,54,0.00,CLR,,0.00,629.0,WeatherDisplay:10.37,2013-05-01 09:02:00,
2013-05-01 11:07:00,75.5,57.7,30.06,NW,322,0.7,3.5,54,0.00,CLR,,0.00,638.0,WeatherDisplay:10.37,2013-05-01 09:07:00,
2013-05-01 11:12:00,75.8,58.0,30.06,West,273,0.0,3.5,54,0.00,CLR,,0.00,645.0,WeatherDisplay:10.37,2013-05-01 09:12:00,
2013-05-01 11:17:00,76.4,58.0,30.06,WNW,298,1.5,3.5,53,0.00,CLR,,0.00,654.0,WeatherDisplay:10.37,2013-05-01 09:17:00,
2013-05-01 11:22:00,76.9,57.9,30.06,SW,221,2.8,5.0,52,0.00,CLR,,0.00,659.0,WeatherDisplay:10.37,2013-05-01 09:22:00,
2013-05-01 11:27:00,77.0,58.0,30.06,WNW,296,0.3,3.5,52,0.00,CLR,,0.00,661.0,WeatherDisplay:10.37,2013-05-01 09:27:00,
2013-05-01 11:32:00,77.1,58.6,30.06,WSW,258,2.4,5.8,53,0.00,CLR,,0.00,661.0,WeatherDisplay:10.37,2013-05-01 09:32:00,
2013-05-01 11:37:00,77.3,57.8,30.06,WNW,292,0.8,3.5,51,0.00,CLR,,0.00,666.0,WeatherDisplay:10.37,2013-05-01 09:37:00,
2013-05-01 11:42:00,77.5,57.9,30.06,NNE,13,3.2,5.0,51,0.00,CLR,,0.00,670.0,WeatherDisplay:10.37,2013-05-01 09:42:00,
2013-05-01 11:47:00,77.6,58.0,30.06,North,355,3.2,5.0,51,0.00,CLR,,0.00,671.0,WeatherDisplay:10.37,2013-05-01 09:47:00,
2013-05-01 11:52:00,77.6,58.0,30.06,NNW,329,1.4,3.5,51,0.00,CLR,,0.00,675.0,WeatherDisplay:10.37,2013-05-01 09:52:00,
2013-05-01 11:57:00,77.4,57.3,30.06,ENE,57,2.0,5.0,50,0.00,CLR,,0.00,684.0,WeatherDisplay:10.37,2013-05-01 09:57:00,
2013-05-01 12:02:00,77.7,57.6,30.06,NW,325,1.9,4.0,50,0.00,CLR,,0.00,686.0,WeatherDisplay:10.37,2013-05-01 10:02:00,
2013-05-01 12:07:00,78.2,57.5,30.06,NNE,15,0.4,3.5,49,0.00,CLR,,0.00,686.0,WeatherDisplay:10.37,2013-05-01 10:07:00,
2013-05-01 12:12:00,78.4,58.2,30.06,WNW,303,2.0,5.8,50,0.00,CLR,,0.00,686.0,WeatherDisplay:10.37,2013-05-01 10:12:00,
2013-05-01 12:17:00,78.4,57.7,30.06,ENE,76,1.2,3.5,49,0.00,CLR,,0.00,684.0,WeatherDisplay:10.37,2013-05-01 10:17:00,
2013-05-01 12:22:00,78.6,57.8,30.05,NNE,14,3.2,5.0,49,0.00,CLR,,0.00,682.0,WeatherDisplay:10.37,2013-05-01 10:22:00,
2013-05-01 12:27:00,79.2,58.4,30.05,NE,49,0.7,2.0,49,0.00,CLR,,0.00,694.0,WeatherDisplay:10.37,2013-05-01 10:27:00,
2013-05-01 12:32:00,79.9,59.0,30.05,West,270,1.8,4.0,49,0.00,CLR,,0.00,694.0,WeatherDisplay:10.37,2013-05-01 10:32:00,
2013-05-01 12:37:00,79.9,58.5,30.05,NW,313,1.3,3.0,48,0.00,CLR,,0.00,689.0,WeatherDisplay:10.37,2013-05-01 10:37:00,
2013-05-01 12:42:00,80.1,58.6,30.05,NW,319,5.1,7.0,48,0.00,CLR,,0.00,684.0,WeatherDisplay:10.37,2013-05-01 10:42:00,
2013-05-01 12:47:00,80.3,58.2,30.05,NW,315,1.8,4.0,47,0.00,FEW,,0.00,686.0,WeatherDisplay:10.37,2013-05-01 10:47:00,
2013-05-01 12:52:00,80.5,57.8,30.05,North,350,0.5,8.1,46,0.00,CLR,,0.00,693.0,WeatherDisplay:10.37,2013-05-01 10:52:00,
2013-05-01 12:57:00,80.7,58.6,30.05,WSW,246,1.0,4.6,47,0.00,CLR,,0.00,687.0,WeatherDisplay:10.37,2013-05-01 10:57:00,
2013-05-01 13:02:00,81.2,57.8,30.05,West,273,4.8,7.0,45,0.00,CLR,,0.00,689.0,WeatherDisplay:10.37,2013-05-01 11:02:00,
2013-05-01 13:07:00,81.1,58.4,30.05,West,275,0.2,2.3,46,0.00,CLR,,0.00,689.0,WeatherDisplay:10.37,2013-05-01 11:07:00,
2013-05-01 13:12:00,81.2,57.8,30.04,South,191,4.0,8.0,45,0.00,CLR,,0.00,689.0,WeatherDisplay:10.37,2013-05-01 11:12:00,
2013-05-01 13:17:00,81.1,57.7,30.04,NW,321,0.8,3.5,45,0.00,CLR,,0.00,689.0,WeatherDisplay:10.37,2013-05-01 11:17:00,
2013-05-01 13:22:00,81.3,57.3,30.04,NNW,346,1.3,3.5,44,0.00,CLR,,0.00,679.0,WeatherDisplay:10.37,2013-05-01 11:22:00,
2013-05-01 13:27:00,81.1,57.1,30.04,WNW,288,0.1,4.6,44,0.00,CLR,,0.00,671.0,WeatherDisplay:10.37,2013-05-01 11:27:00,
2013-05-01 13:32:00,81.0,57.0,30.04,North,10,2.5,6.0,44,0.00,CLR,,0.00,663.0,WeatherDisplay:10.37,2013-05-01 11:32:00,
2013-05-01 13:37:00,81.2,57.8,30.04,West,277,0.6,3.5,45,0.00,CLR,,0.00,664.0,WeatherDisplay:10.37,2013-05-01 11:37:00,
2013-05-01 13:42:00,81.2,57.2,30.04,NNW,337,3.2,5.8,44,0.00,CLR,,0.00,670.0,WeatherDisplay:10.37,2013-05-01 11:42:00,
2013-05-01 13:47:00,81.3,57.9,30.04,NW,320,1.7,4.0,45,0.00,CLR,,0.00,673.0,WeatherDisplay:10.37,2013-05-01 11:47:00,
2013-05-01 13:52:00,81.3,57.3,30.04,NNE,28,1.4,4.0,44,0.00,CLR,,0.00,663.0,WeatherDisplay:10.37,2013-05-01 11:52:00,
2013-05-01 13:57:00,81.9,57.8,30.04,South,188,0.9,5.8,44,0.00,CLR,,0.00,654.0,WeatherDisplay:10.37,2013-05-01 11:57:00,
2013-05-01 14:02:00,81.9,58.5,30.03,East,88,0.8,2.3,45,0.00,CLR,,0.00,650.0,WeatherDisplay:10.37,2013-05-01 12:02:00,
2013-05-01 14:07:00,82.6,58.5,30.04,WSW,258,4.9,8.1,44,0.00,CLR,,0.00,643.0,WeatherDisplay:10.37,2013-05-01 12:07:00,
2013-05-01 14:12:00,83.0,58.8,30.04,WSW,237,1.8,4.0,44,0.00,CLR,,0.00,642.0,WeatherDisplay:10.37,2013-05-01 12:12:00,
2013-05-01 14:17:00,83.2,58.4,30.03,South,185,3.9,6.0,43,0.00,CLR,,0.00,642.0,WeatherDisplay:10.37,2013-05-01 12:17:00,
2013-05-01 14:22:00,83.5,56.6,30.03,SSW,209,2.7,4.0,40,0.00,CLR,,0.00,635.0,WeatherDisplay:10.37,2013-05-01 12:22:00,
2013-05-01 14:27:00,83.1,57.0,30.03,WSW,238,3.9,6.0,41,0.00,CLR,,0.00,635.0,WeatherDisplay:10.37,2013-05-01 12:27:00,
2013-05-01 14:32:00,83.5,55.9,30.03,West,270,4.2,8.1,39,0.00,CLR,,0.00,617.0,WeatherDisplay:10.37,2013-05-01 12:32:00,
2013-05-01 14:37:00,83.3,54.3,30.03,WSW,247,0.7,5.8,37,0.00,CLR,,0.00,613.0,WeatherDisplay:10.37,2013-05-01 12:37:00,
2013-05-01 14:42:00,83.1,55.6,30.03,SSW,209,0.4,3.5,39,0.00,CLR,,0.00,608.0,WeatherDisplay:10.37,2013-05-01 12:42:00,
2013-05-01 14:47:00,83.6,56.0,30.03,WSW,256,3.4,6.0,39,0.00,CLR,,0.00,603.0,WeatherDisplay:10.37,2013-05-01 12:47:00,
2013-05-01 14:52:00,84.1,55.7,30.02,South,169,1.2,9.2,38,0.00,CLR,,0.00,594.0,WeatherDisplay:10.37,2013-05-01 12:52:00,
2013-05-01 14:57:00,84.3,54.4,30.03,SW,230,1.3,6.9,36,0.00,CLR,,0.00,582.0,WeatherDisplay:10.37,2013-05-01 12:57:00,
2013-05-01 15:02:00,84.0,54.9,30.02,WSW,241,0.3,3.5,37,0.00,CLR,,0.00,577.0,WeatherDisplay:10.37,2013-05-01 13:02:00,
2013-05-01 15:07:00,83.9,53.3,30.02,SW,236,4.6,7.0,35,0.00,CLR,,0.00,570.0,WeatherDisplay:10.37,2013-05-01 13:07:00,
2013-05-01 15:12:00,84.0,53.4,30.02,SW,219,1.2,5.8,35,0.00,CLR,,0.00,563.0,WeatherDisplay:10.37,2013-05-01 13:12:00,
2013-05-01 15:17:00,84.4,53.8,30.02,SW,229,1.1,3.5,35,0.00,CLR,,0.00,552.0,WeatherDisplay:10.37,2013-05-01 13:17:00,
2013-05-01 15:22:00,84.7,53.2,30.02,WNW,283,7.6,11.0,34,0.00,CLR,,0.00,540.0,WeatherDisplay:10.37,2013-05-01 13:22:00,
2013-05-01 15:27:00,84.4,52.1,30.02,NW,312,4.1,8.0,33,0.00,CLR,,0.00,533.0,WeatherDisplay:10.37,2013-05-01 13:27:00,
2013-05-01 15:32:00,84.3,55.2,30.02,WSW,246,3.0,5.8,37,0.00,CLR,,0.00,524.0,WeatherDisplay:10.37,2013-05-01 13:32:00,
2013-05-01 15:37:00,84.4,53.8,30.02,SW,221,1.5,11.5,35,0.00,CLR,,0.00,515.0,WeatherDisplay:10.37,2013-05-01 13:37:00,
2013-05-01 15:42:00,84.4,52.1,30.02,WSW,244,4.6,10.4,33,0.00,CLR,,0.00,503.0,WeatherDisplay:10.37,2013-05-01 13:42:00,
2013-05-01 15:47:00,84.4,53.8,30.02,SW,232,3.8,9.2,35,0.00,CLR,,0.00,490.0,WeatherDisplay:10.37,2013-05-01 13:47:00,
2013-05-01 15:52:00,84.1,54.3,30.02,SW,222,0.7,3.5,36,0.00,CLR,,0.00,476.0,WeatherDisplay:10.37,2013-05-01 13:52:00,
2013-05-01 15:57:00,84.2,53.6,30.01,SSW,211,1.6,6.9,35,0.00,CLR,,0.00,468.0,WeatherDisplay:10.37,2013-05-01 13:57:00,
2013-05-01 16:02:00,84.4,53.8,30.02,WSW,242,2.1,5.8,35,0.00,CLR,,0.00,459.0,WeatherDisplay:10.37,2013-05-01 14:02:00,
2013-05-01 16:07:00,84.2,52.8,30.01,SW,222,1.8,9.2,34,0.00,CLR,,0.00,450.0,WeatherDisplay:10.37,2013-05-01 14:07:00,
2013-05-01 16:12:00,84.1,52.7,30.01,SW,236,4.8,11.5,34,0.00,CLR,,0.00,445.0,WeatherDisplay:10.37,2013-05-01 14:12:00,
2013-05-01 16:17:00,84.2,52.0,30.01,WSW,256,7.5,11.5,33,0.00,CLR,,0.00,429.0,WeatherDisplay:10.37,2013-05-01 14:17:00,
2013-05-01 16:22:00,84.2,52.8,30.01,SSW,209,1.8,8.1,34,0.00,CLR,,0.00,418.0,WeatherDisplay:10.37,2013-05-01 14:22:00,
2013-05-01 16:27:00,84.2,52.8,30.01,West,271,5.5,9.0,34,0.00,CLR,,0.00,410.0,WeatherDisplay:10.37,2013-05-01 14:27:00,
2013-05-01 16:32:00,84.1,51.9,30.01,SW,219,3.4,8.1,33,0.00,CLR,,0.00,399.0,WeatherDisplay:10.37,2013-05-01 14:32:00,
2013-05-01 16:37:00,84.0,52.6,30.01,SW,229,6.0,10.4,34,0.00,CLR,,0.00,394.0,WeatherDisplay:10.37,2013-05-01 14:37:00,
2013-05-01 16:42:00,83.9,53.3,30.01,WSW,237,4.8,11.5,35,0.00,CLR,,0.00,381.0,WeatherDisplay:10.37,2013-05-01 14:42:00,
2013-05-01 16:47:00,83.8,54.0,30.01,SW,234,3.5,6.9,36,0.00,CLR,,0.00,369.0,WeatherDisplay:10.37,2013-05-01 14:47:00,
2013-05-01 16:52:00,83.8,53.2,30.00,SW,236,3.6,9.2,35,0.00,CLR,,0.00,357.0,WeatherDisplay:10.37,2013-05-01 14:52:00,
2013-05-01 16:57:00,83.7,53.1,30.00,WSW,256,2.6,6.0,35,0.00,CLR,,0.00,341.0,WeatherDisplay:10.37,2013-05-01 14:57:00,
2013-05-01 17:02:00,83.7,52.3,30.00,WSW,252,4.5,6.9,34,0.00,CLR,,0.00,329.0,WeatherDisplay:10.37,2013-05-01 15:02:00,
2013-05-01 17:07:00,83.6,54.6,30.00,WSW,248,2.9,8.1,37,0.00,CLR,,0.00,316.0,WeatherDisplay:10.37,2013-05-01 15:07:00,
2013-05-01 17:12:00,83.6,53.1,30.00,WNW,282,4.3,8.1,35,0.00,CLR,,0.00,311.0,WeatherDisplay:10.37,2013-05-01 15:12:00,
2013-05-01 17:17:00,83.5,53.7,30.00,WSW,245,2.4,6.9,36,0.00,CLR,,0.00,297.0,WeatherDisplay:10.37,2013-05-01 15:17:00,
2013-05-01 17:22:00,83.4,52.1,30.00,West,271,3.4,8.1,34,0.00,CLR,,0.00,283.0,WeatherDisplay:10.37,2013-05-01 15:22:00,
2013-05-01 17:27:00,83.3,52.8,30.00,West,266,2.8,6.0,35,0.00,CLR,,0.00,269.0,WeatherDisplay:10.37,2013-05-01 15:27:00,
2013-05-01 17:32:00,83.2,53.5,30.00,West,268,4.8,8.0,36,0.00,CLR,,0.00,255.0,WeatherDisplay:10.37,2013-05-01 15:32:00,
2013-05-01 17:37:00,83.1,53.4,30.00,SSW,213,4.1,8.0,36,0.00,CLR,,0.00,244.0,WeatherDisplay:10.37,2013-05-01 15:37:00,
2013-05-01 17:42:00,83.0,54.8,30.00,West,279,1.6,4.0,38,0.00,CLR,,0.00,230.0,WeatherDisplay:10.37,2013-05-01 15:42:00,
2013-05-01 17:47:00,83.1,55.6,29.99,West,265,1.2,8.1,39,0.00,CLR,,0.00,216.0,WeatherDisplay:10.37,2013-05-01 15:47:00,
2013-05-01 17:52:00,83.0,54.8,29.99,West,261,0.2,4.6,38,0.00,CLR,,0.00,204.0,WeatherDisplay:10.37,2013-05-01 15:52:00,
2013-05-01 17:57:00,82.9,56.1,29.99,SW,223,3.3,7.0,40,0.00,CLR,,0.00,192.0,WeatherDisplay:10.37,2013-05-01 15:57:00,
2013-05-01 18:02:00,82.7,55.2,29.99,WSW,254,1.9,6.9,39,0.00,CLR,,0.00,179.0,WeatherDisplay:10.37,2013-05-01 16:02:00,
2013-05-01 18:07:00,82.5,55.0,29.99,SW,225,3.4,6.0,39,0.00,FEW,,0.00,169.0,WeatherDisplay:10.37,2013-05-01 16:07:00,
2013-05-01 18:12:00,82.3,54.2,29.99,SW,215,2.3,5.8,38,0.00,FEW,,0.00,156.0,WeatherDisplay:10.37,2013-05-01 16:12:00,
2013-05-01 18:17:00,82.2,55.5,29.99,WSW,253,2.3,4.6,40,0.00,FEW,,0.00,146.0,WeatherDisplay:10.37,2013-05-01 16:17:00,
2013-05-01 18:22:00,82.1,54.7,29.99,West,274,2.3,4.6,39,0.00,FEW,,0.00,135.0,WeatherDisplay:10.37,2013-05-01 16:22:00,
2013-05-01 18:27:00,81.9,55.2,29.99,SSW,207,3.8,6.9,40,0.00,FEW,,0.00,121.0,WeatherDisplay:10.37,2013-05-01 16:27:00,
2013-05-01 18:32:00,81.6,54.2,29.99,SW,232,3.5,7.0,39,0.00,FEW,,0.00,109.0,WeatherDisplay:10.37,2013-05-01 16:32:00,
2013-05-01 18:37:00,81.3,54.7,29.99,SW,234,1.0,5.8,40,0.00,FEW,,0.00,98.0,WeatherDisplay:10.37,2013-05-01 16:37:00,
2013-05-01 18:42:00,81.0,54.4,29.99,SW,224,2.6,4.6,40,0.00,FEW,,0.00,88.0,WeatherDisplay:10.37,2013-05-01 16:42:00,
2013-05-01 18:47:00,80.8,53.5,29.99,West,267,2.3,5.8,39,0.00,SCT,,0.00,77.0,WeatherDisplay:10.37,2013-05-01 16:47:00,
2013-05-01 18:52:00,80.6,54.7,29.99,West,265,0.5,2.3,41,0.00,SCT,,0.00,70.0,WeatherDisplay:10.37,2013-05-01 16:52:00,
2013-05-01 18:57:00,80.3,54.5,29.99,WSW,250,0.1,3.5,41,0.00,SCT,,0.00,63.0,WeatherDisplay:10.37,2013-05-01 16:57:00,
2013-05-01 19:02:00,80.0,54.2,29.99,WSW,250,0.2,1.2,41,0.00,SCT,,0.00,54.0,WeatherDisplay:10.37,2013-05-01 17:02:00,
2013-05-01 19:07:00,79.7,54.6,29.99,WSW,250,0.0,1.0,42,0.00,SCT,,0.00,47.0,WeatherDisplay:10.37,2013-05-01 17:07:00,
2013-05-01 19:12:00,79.5,54.4,29.99,WSW,250,0.0,2.3,42,0.00,SCT,,0.00,40.0,WeatherDisplay:10.37,2013-05-01 17:12:00,
2013-05-01 19:17:00,79.3,54.2,30.00,WSW,250,0.0,1.2,42,0.00,SCT,,0.00,33.0,WeatherDisplay:10.37,2013-05-01 17:17:00,
2013-05-01 19:22:00,79.0,54.6,30.00,WSW,250,0.5,2.3,43,0.00,SCT,,0.00,28.0,WeatherDisplay:10.37,2013-05-01 17:22:00,
2013-05-01 19:27:00,78.8,54.4,30.00,WSW,250,0.0,0.0,43,0.00,SCT,,0.00,23.0,WeatherDisplay:10.37,2013-05-01 17:27:00,
2013-05-01 19:32:00,78.5,54.1,30.00,WSW,250,0.0,1.2,43,0.00,SCT,,0.00,19.0,WeatherDisplay:10.37,2013-05-01 17:32:00,
2013-05-01 19:37:00,78.1,54.4,30.00,WSW,255,0.0,3.5,44,0.00,SCT,,0.00,14.0,WeatherDisplay:10.37,2013-05-01 17:37:00,
2013-05-01 19:42:00,77.7,54.0,30.00,WSW,256,0.1,2.3,44,0.00,SCT,,0.00,11.0,WeatherDisplay:10.37,2013-05-01 17:42:00,
2013-05-01 19:47:00,77.4,54.4,30.00,WSW,255,0.1,1.0,45,0.00,SCT,,0.00,7.0,WeatherDisplay:10.37,2013-05-01 17:47:00,
2013-05-01 19:52:00,77.1,55.3,30.01,WSW,255,0.0,0.0,47,0.00,SCT,,0.00,0.0,WeatherDisplay:10.37,2013-05-01 17:52:00,
2013-05-01 19:57:00,76.7,55.5,30.01,WSW,255,0.0,0.0,48,0.00,SCT,,0.00,0.0,WeatherDisplay:10.37,2013-05-01 17:57:00,
2013-05-01 20:02:00,76.3,55.7,30.01,WSW,255,0.0,0.0,49,0.00,SCT,,0.00,0.0,WeatherDisplay:10.37,2013-05-01 18:02:00,
2013-05-01 20:07:00,75.8,55.8,30.01,WSW,255,0.0,0.0,50,0.00,SCT,,0.00,0.0,WeatherDisplay:10.37,2013-05-01 18:07:00,
2013-05-01 20:12:00,75.2,55.8,30.01,WSW,255,0.0,0.0,51,0.00,SCT,,0.00,0.0,WeatherDisplay:10.37,2013-05-01 18:12:00,
2013-05-01 20:17:00,74.7,55.9,30.01,WSW,255,0.0,0.0,52,0.00,SCT,,0.00,0.0,WeatherDisplay:10.37,2013-05-01 18:17:00,
2013-05-01 20:22:00,74.1,56.4,30.02,WSW,255,0.0,0.0,54,0.00,SCT,,0.00,0.0,WeatherDisplay:10.37,2013-05-01 18:22:00,
2013-05-01 20:27:00,73.4,56.2,30.01,WSW,256,0.0,0.0,55,0.00,SCT,,0.00,0.0,WeatherDisplay:10.37,2013-05-01 18:27:00,
2013-05-01 20:32:00,72.9,56.3,30.02,WSW,255,0.0,0.0,56,0.00,SCT,,0.00,0.0,WeatherDisplay:10.37,2013-05-01 18:32:00,
2013-05-01 20:37:00,72.3,56.2,30.02,WSW,255,0.0,0.0,57,0.00,SCT,,0.00,0.0,WeatherDisplay:10.37,2013-05-01 18:37:00,
2013-05-01 20:42:00,71.9,56.3,30.02,WSW,255,0.0,0.0,58,0.00,SCT,,0.00,0.0,WeatherDisplay:10.37,2013-05-01 18:42:00,
2013-05-01 20:47:00,71.4,56.8,30.02,WSW,255,0.0,0.0,60,0.00,SCT,,0.00,0.0,WeatherDisplay:10.37,2013-05-01 18:47:00,
2013-05-01 20:52:00,71.0,56.4,30.02,WSW,255,0.0,0.0,60,0.00,SCT,,0.00,0.0,WeatherDisplay:10.37,2013-05-01 18:52:00,
2013-05-01 20:57:00,70.5,56.4,30.02,WSW,256,0.0,0.0,61,0.00,SCT,,0.00,0.0,WeatherDisplay:10.37,2013-05-01 18:57:00,
2013-05-01 21:02:00,70.1,56.5,30.02,WSW,256,0.0,0.0,62,0.00,SCT,,0.00,0.0,WeatherDisplay:10.37,2013-05-01 19:02:00,
2013-05-01 21:07:00,69.7,56.5,30.03,WSW,256,0.0,0.0,63,0.00,SCT,,0.00,0.0,WeatherDisplay:10.37,2013-05-01 19:07:00,
2013-05-01 21:12:00,69.3,56.6,30.03,WSW,255,0.0,0.0,64,0.00,SCT,,0.00,0.0,WeatherDisplay:10.37,2013-05-01 19:12:00,
2013-05-01 21:17:00,69.0,56.7,30.03,WSW,256,0.0,0.0,65,0.00,SCT,,0.00,0.0,WeatherDisplay:10.37,2013-05-01 19:17:00,
2013-05-01 21:22:00,68.7,56.5,30.03,WSW,255,0.0,0.0,65,0.00,SCT,,0.00,0.0,WeatherDisplay:10.37,2013-05-01 19:22:00,
2013-05-01 21:27:00,68.3,56.5,30.03,WSW,255,0.0,0.0,66,0.00,SCT,,0.00,0.0,WeatherDisplay:10.37,2013-05-01 19:27:00,
2013-05-01 21:32:00,68.0,56.6,30.03,WSW,255,0.0,0.0,67,0.00,SCT,,0.00,0.0,WeatherDisplay:10.37,2013-05-01 19:32:00,
2013-05-01 21:37:00,67.7,56.8,30.03,WSW,255,0.0,0.0,68,0.00,SCT,,0.00,0.0,WeatherDisplay:10.37,2013-05-01 19:37:00,
2013-05-01 21:42:00,67.4,56.5,30.03,WSW,255,0.0,0.0,68,0.00,SCT,,0.00,0.0,WeatherDisplay:10.37,2013-05-01 19:42:00,
2013-05-01 21:47:00,67.1,56.6,30.03,WSW,255,0.0,0.0,69,0.00,SCT,,0.00,0.0,WeatherDisplay:10.37,2013-05-01 19:47:00,
2013-05-01 21:52:00,66.8,56.3,30.02,WSW,255,0.0,0.0,69,0.00,SCT,,0.00,0.0,WeatherDisplay:10.37,2013-05-01 19:52:00,
2013-05-01 21:57:00,66.6,56.5,30.03,WSW,256,0.0,0.0,70,0.00,SCT,,0.00,0.0,WeatherDisplay:10.37,2013-05-01 19:57:00,
2013-05-01 22:02:00,66.3,56.2,30.03,WSW,255,0.0,0.0,70,0.00,SCT,,0.00,0.0,WeatherDisplay:10.37,2013-05-01 20:02:00,
2013-05-01 22:07:00,66.0,56.3,30.03,WSW,256,0.0,0.0,71,0.00,SCT,,0.00,0.0,WeatherDisplay:10.37,2013-05-01 20:07:00,
2013-05-01 22:12:00,65.8,56.1,30.03,WSW,255,0.0,0.0,71,0.00,SCT,,0.00,0.0,WeatherDisplay:10.37,2013-05-01 20:12:00,
2013-05-01 22:17:00,65.5,56.2,30.02,WSW,255,0.0,0.0,72,0.00,SCT,,0.00,0.0,WeatherDisplay:10.37,2013-05-01 20:17:00,
2013-05-01 22:22:00,65.3,56.4,30.02,WSW,256,0.0,0.0,73,0.00,SCT,,0.00,0.0,WeatherDisplay:10.37,2013-05-01 20:22:00,
2013-05-01 22:27:00,65.1,56.2,30.02,WSW,255,0.0,0.0,73,0.00,SCT,,0.00,0.0,WeatherDisplay:10.37,2013-05-01 20:27:00,
2013-05-01 22:32:00,64.9,56.4,30.02,WSW,255,0.0,0.0,74,0.00,SCT,,0.00,0.0,WeatherDisplay:10.37,2013-05-01 20:32:00,
2013-05-01 22:37:00,64.8,56.7,30.02,ESE,102,4.1,8.0,75,0.00,SCT,,0.00,0.0,WeatherDisplay:10.37,2013-05-01 20:37:00,
2013-05-01 22:42:00,65.0,56.5,30.02,East,84,5.0,9.0,74,0.00,SCT,,0.00,0.0,WeatherDisplay:10.37,2013-05-01 20:42:00,
2013-05-01 22:47:00,65.8,56.9,30.02,ESE,111,8.3,13.0,73,0.00,SCT,,0.00,0.0,WeatherDisplay:10.37,2013-05-01 20:47:00,
2013-05-01 22:52:00,66.7,57.4,30.02,ESE,113,5.6,12.7,72,0.00,SCT,,0.00,0.0,WeatherDisplay:10.37,2013-05-01 20:52:00,
2013-05-01 22:57:00,67.4,57.7,30.02,East,83,6.3,11.5,71,0.00,SCT,,0.00,0.0,WeatherDisplay:10.37,2013-05-01 20:57:00,
2013-05-01 23:02:00,68.0,57.4,30.02,SE,144,7.5,15.0,69,0.00,SCT,,0.00,0.0,WeatherDisplay:10.37,2013-05-01 21:02:00,
2013-05-01 23:07:00,68.3,57.3,30.02,ESE,113,10.8,14.0,68,0.00,SCT,,0.00,0.0,WeatherDisplay:10.37,2013-05-01 21:07:00,
2013-05-01 23:12:00,68.4,57.0,30.02,East,83,7.2,12.0,67,0.00,SCT,,0.00,0.0,WeatherDisplay:10.37,2013-05-01 21:12:00,
2013-05-01 23:17:00,68.5,56.7,30.02,East,86,6.6,15.0,66,0.00,SCT,,0.00,0.0,WeatherDisplay:10.37,2013-05-01 21:17:00,
2013-05-01 23:22:00,68.5,56.7,30.02,East,91,7.5,15.0,66,0.00,SCT,,0.00,0.0,WeatherDisplay:10.37,2013-05-01 21:22:00,
2013-05-01 23:27:00,68.4,56.6,30.02,ESE,108,9.0,16.1,66,0.00,SCT,,0.00,0.0,WeatherDisplay:10.37,2013-05-01 21:27:00,
2013-05-01 23:32:00,68.3,56.5,30.02,East,84,6.5,13.8,66,0.00,SCT,,0.00,0.0,WeatherDisplay:10.37,2013-05-01 21:32:00,
2013-05-01 23:37:00,68.2,56.4,30.02,ESE,106,6.3,11.5,66,0.00,SCT,,0.00,0.0,WeatherDisplay:10.37,2013-05-01 21:37:00,
2013-05-01 23:42:00,68.0,56.6,30.02,SE,143,8.7,12.7,67,0.00,SCT,,0.00,0.0,WeatherDisplay:10.37,2013-05-01 21:42:00,
2013-05-01 23:47:00,67.8,56.4,30.02,East,86,6.5,12.0,67,0.00,SCT,,0.00,0.0,WeatherDisplay:10.37,2013-05-01 21:47:00,
2013-05-01 23:52:00,67.7,56.3,30.02,SSE,157,3.3,13.8,67,0.00,SCT,,0.00,0.0,WeatherDisplay:10.37,2013-05-01 21:52:00,
2013-05-01 23:57:00,67.6,56.2,30.02,SSE,148,3.4,9.2,67,0.00,SCT,,0.00,0.0,WeatherDisplay:10.37,2013-05-01 21:57:00,